Foots Cray, United Kingdom
Current Conditions -  °F | °C
As of 11:50 AM on Tuesday 21 Oct 2014 (Local Time) from EGKB Reporting Station
Scattered Clouds Scattered Clouds  
Wind Chill: 54°   Ceiling: Unl
Heat Index: 54°   Visibility: 6mi
Dew Point: 37°   Wind: 23mph
Humidity: 54%   Direction: 280°W
Pressure: 29.68"   Gusts: 35mph
Location:  51.38°N, 0.07°E
Report Text: EGKB 211050Z 28020G30KT 9999 SCT025 12/03 Q1005
Loading
Personal Weather Stations






























Interactive Weather Map
Tropical Storm Tracking
New forecast layout! Learn more

10-Day Weather Forecast

Advertisements
Track Severe Weather on mobile